Regional Weather Roundup
Issued by NWS

Home | Current Version | Previous Version | Graphics & Text | Print | Product List | Glossary On
Versions: 1 2 3 4 5 6 7 8 9 10 11 12 13 14 15 16 17 18 19 20 21 22 23 24 25 26 27 28 29 30 31 32 33 34 35 36 37 38 39 40 41 42 43 44 45 46 47 48 49 50
000
ASUS45 KABQ 261301
RWRNM
NEW MEXICO REGIONAL WEATHER ROUNDUP
NATIONAL WEATHER SERVICE ALBUQUERQUE NM
700 AM MDT WED JUL 26 2017

NOTE: "FAIR" MEANS FEW OR NO CLOUDS BELOW 12,000 FEET AGL WITH NO
       SIGNIFICANT WEATHER OR OBSTRUCTIONS TO VISION.

      THIS PRODUCT IS RELEASED AS TWO VERSIONS.  ONE VERSION NEAR
      THE TOP OF THE HOUR CONTAINING PRELIMINARY DATA FROM ALBUQUERQUE
      AND OTHER STATIONS.  A FINAL VERSION WITH ADDITIONAL DATA IS
      ISSUED ABOUT 10 MINUTES AFTER THE HOUR.

NMZ501-503-504-510>518-261400-
NORTHWEST PLATEAU/NORTHCENTRAL MOUNTAINS

CITY           SKY/WX    TMP DP  RH WIND       PRES   REMARKS
FARMINGTON     MOCLDY    62  61  96 N6        30.27R
LOS ALAMOS     MOCLDY    64  56  77 CALM      30.38S
SANTA FE       MOCLDY    63  58  83 N10       30.31R
TAOS           FAIR      55  46  71 CALM      30.36
ANGEL FIRE     FAIR      52  49  92 CALM      30.47S

$$
NMZ402-403-502-505>509-261400-
WESTCENTRAL MOUNTAINS/SOUTHWEST MOUNTAINS

CITY           SKY/WX    TMP DP  RH WIND       PRES   REMARKS
GALLUP         FAIR      59  55  87 NE3       30.35R
GRANTS         FAIR      59  55  85 W5        30.38R
SILVER CITY    FAIR      67  60  79 NW10      30.26R

$$
NMZ407-409-411-412-261400-
SOUTHERN DESERTS

CITY           SKY/WX    TMP DP  RH WIND       PRES   REMARKS
DEMING         FAIR      70  64  81 SW5       30.18R
LAS CRUCES     FAIR      71  65  81 W6        30.18R
HOLLOMAN AFB   FAIR      75  60  59 SE5       30.16R
ALAMOGORDO     FAIR      72  57  60 CALM      30.16R
T OR C         FAIR      74  56  53 NW10      30.19R

$$
NMZ519>523-261400-
CENTRAL VALLEYS/CENTRAL HIGHLANDS

CITY           SKY/WX    TMP DP  RH WIND       PRES   REMARKS
ALBUQUERQUE    FAIR      71  57  61 CALM      30.26R
DOUBLE EAGLE   PTCLDY    61  57  88 NW5       30.30R
MORIARTY ARPT  FAIR      60  57  88 CALM      30.32R
CLINES CORNERS FAIR      64  52  64 W10       30.35R
BELEN          NOT AVBL
SOCORRO        CLOUDY    70  60  69 CALM      30.21S

$$
NMZ524>526-539-540-261400-
SOUTHCENTRAL MOUNTAINS

CITY           SKY/WX    TMP DP  RH WIND       PRES   REMARKS
RUIDOSO        FAIR      64  55  72 W6        30.37R

$$
NMZ527>531-261400-
NORTHEAST HIGHLANDS/NORTHEAST PLAINS

CITY           SKY/WX    TMP DP  RH WIND       PRES   REMARKS
LAS VEGAS      FAIR      62  53  72 N6        30.31R
RATON          FAIR      62  58  86 E6        30.26R
CLAYTON        FAIR      73  60  63 NW6       30.18R

$$
NMZ532>537-261400-
EASTCENTRAL PLAINS

CITY           SKY/WX    TMP DP  RH WIND       PRES   REMARKS
SANTA ROSA     FAIR      67  60  78 CALM      30.18R
TUCUMCARI      FAIR      77  60  55 SW17G24   30.09S
CANNON AFB     FAIR      73  62  68 S7        30.18R
CLOVIS AIRPORT FAIR      71  61  70 S7        30.17S

$$
NMZ028-029-538-261400-
SOUTHEAST PLAINS

CITY           SKY/WX    TMP DP  RH WIND       PRES   REMARKS
ROSWELL        FAIR      74  59  59 S7        30.11R
ARTESIA        FAIR      75  61  60 S8        30.11R
CARLSBAD       FAIR      73  65  75 S6        30.09R
HOBBS          MOSUNNY   73  63  68 SE9       30.15R


$$




USA.gov is the U.S. government's official web portal to all federal, state and local government web resources and services.